Riverside March, CA

10:49 PM PST on February 19, 2018 (GMT -0800)
March Air Reserve Base

Weather History for KRIV - April, 2014

Change the Weather History Date:

Monday, April 21, 2014

  Actual Average Record
Temperature  
Mean Temperature 68 °F -  
Max Temperature 88 °F 73 °F 97 °F (2009)
Min Temperature 51 °F 45 °F 39 °F (2008)
Cooling Degree Days 4    
Growing Degree Days 18 (Base 50)    
Moisture  
Dew Point 47 °F    
Average Humidity 52    
Maximum Humidity 84    
Minimum Humidity 19    
Precipitation  
Precipitation 0.00 in - - ()
Sea Level Pressure  
Sea Level Pressure 29.99 in    
Wind  
Wind Speed 4 mph (WNW)    
Max Wind Speed 17 mph    
Max Gust Speed -    
Visibility 10 miles    
Events      
Averages and records for this station are not official NWS values.
T = Trace of Precipitation, MM = Missing Value Source: NWS Daily Summary

Daily Weather History Graph

Daily Weather History Graph

Search for Another Location

Airport or City:

Trip Planner

Search our weather history database for the weather conditions in past years. The results will help you decide how hot, cold, wet, or windy it might be!

Date:

Astronomy

Apr. 21, 2014 Rise Set
Actual Time 6:10 AM PDT 7:24 PM PDT
Civil Twilight 5:44 AM PDT 7:51 PM PDT
Nautical Twilight 5:13 AM PDT 8:22 PM PDT
Astronomical Twilight 4:41 AM PDT 8:54 PM PDT
Moon 12:54 AM PDT (4/21) 11:46 AM PDT (4/21)
Length of Visible Light 14h 06m
Length of Day
13h 14m
Waning Gibbous, 56% of the Moon is Illuminated
Apr 21
Waning Gibbous
Apr 22
Last Quarter
Apr 28
New
May 6
First Quarter
May 14
Full

Hourly Weather History & Observations

Time (PDT) Temp. Dew Point Humidity Pressure Visibility Wind Dir Wind Speed Gust Speed Precip Events Conditions
12:58 AM 58.1 °F 48.7 °F 71% 30.04 in 10.0 mi West 2.3 mph - N/A   Clear
1:58 AM 57.6 °F 48.9 °F 73% 30.02 in 10.0 mi WNW 3.5 mph - N/A   Clear
2:58 AM 55.4 °F 48.9 °F 79% 30.01 in 10.0 mi West 3.5 mph - N/A   Clear
3:58 AM 53.1 °F 46.9 °F 80% 30.01 in 10.0 mi Calm Calm - N/A   Clear
4:58 AM 51.6 °F 46.6 °F 83% 30.01 in 10.0 mi Calm Calm - N/A   Clear
5:58 AM 52.7 °F 48.0 °F 84% 30.02 in 10.0 mi West 2.3 mph - N/A   Clear
6:58 AM 55.0 °F 48.9 °F 80% 30.03 in 10.0 mi Calm Calm - N/A   Clear
7:58 AM 62.8 °F 51.8 °F 67% 30.04 in 10.0 mi Calm Calm - N/A   Clear
8:58 AM 66.9 °F 52.5 °F 60% 30.04 in 10.0 mi Calm Calm - N/A   Clear
9:58 AM 72.5 °F 52.9 °F 50% 30.03 in 10.0 mi Variable 1.2 mph - N/A   Partly Cloudy
10:58 AM 77.5 °F 50.5 °F 39% 30.03 in 10.0 mi Variable 5.8 mph - N/A   Partly Cloudy
11:58 AM 81.3 °F 45.3 °F 28% 30.01 in 10.0 mi NW 6.9 mph - N/A   Partly Cloudy
12:58 PM 85.1 °F 46.4 °F 26% 29.99 in 10.0 mi Variable 5.8 mph - N/A   Partly Cloudy
1:58 PM 86.5 °F 47.3 °F 26% 29.97 in 10.0 mi WNW 10.4 mph - N/A   Partly Cloudy
2:58 PM 86.5 °F 49.3 °F 28% 29.96 in 10.0 mi WNW 17.3 mph - N/A   Clear
3:58 PM 86.0 °F 41.5 °F 21% 29.94 in 10.0 mi WNW 16.1 mph - N/A   Clear
4:58 PM 84.7 °F 37.9 °F 19% 29.92 in 10.0 mi NW 13.8 mph - N/A   Clear
5:58 PM 81.9 °F 43.0 °F 25% 29.92 in 10.0 mi WNW 12.7 mph - N/A   Clear
6:58 PM 75.2 °F 44.8 °F 34% 29.93 in 10.0 mi NW 11.5 mph - N/A   Clear
7:58 PM 70.9 °F 42.6 °F 36% 29.94 in 10.0 mi WNW 4.6 mph - N/A   Clear
8:58 PM 65.8 °F 46.9 °F 50% 29.96 in 10.0 mi WNW 5.8 mph - N/A   Clear
9:58 PM 64.0 °F 50.0 °F 60% 29.96 in 10.0 mi NW 4.6 mph - 0.00 in   Clear
10:58 PM 60.8 °F 48.7 °F 64% 29.96 in 10.0 mi NW 6.9 mph - N/A   Mostly Cloudy
11:58 PM 60.8 °F 46.6 °F 59% 29.95 in 10.0 mi SSW 2.3 mph - N/A   Clear